Location: Virginia Beach
(36.8530°N, 75.9780°W)
Time: 02:39:46
(UTC-04:00)

ISS - Visible Passes

Search period start: 19 October 2019 00:00
Search period end: 29 October 2019 00:00
Orbit: 411 x 421 km, 51.6° (Epoch: 19 October)

Date Brightness Start Highest point End Pass type
(mag) Time Alt. Az. Time Alt. Az. Time Alt. Az.
23 Oct -1.5 06:11:35 10° S 06:14:25 25° SE 06:17:15 10° ENE visible
24 Oct -0.8 05:24:11 10° SSE 05:26:00 14° SE 05:27:48 10° E visible
25 Oct -3.8 06:11:26 18° SW 06:13:48 85° SE 06:17:10 10° NE visible
26 Oct -2.5 05:25:39 40° ESE 05:25:39 40° ESE 05:28:28 10° ENE visible
27 Oct -2.9 06:12:34 29° WNW 06:13:21 33° NNW 06:16:27 10° NNE visible
28 Oct -1.8 05:26:23 25° NNE 05:26:23 25° NNE 05:27:59 10° NE visible
